RH
48 66 84 80 78 77 75 74 75 76 84 83 80 78 77 79 77 75 74 75 77 71 72 72 73 69 65 73 77 77 77 77 77 78 82 80 78 74 70 71 69 60 74
46 60 84 81 77 77 74 79 82 81 86 83 81 78 78 79 76 72 73 78 73 68 73 70 68 68 69 72 76 76 78 79 80 81 83 81 80 74 69 75 78 66 75
58 60 64 82 81 79 79 83 84 83 86 84 82 80 78 78 76 72 72 76 71 68 72 65 68 69 70 72 75 78 78 77 74 72 74 45 60 69 66 72 77 75 75
59 59 58 82 82 81 81 84 84 83 83 83 83 82 80 78 74 71 70 72 73 74 74 72 73 74 74 69 69 71 69 65 60 62 36 34 40 68 68 66 70 73 74
64 57 59 84 83 82 82 83 82 83 84 81 83 82 81 77 71 69 72 75 77 73 70 76 77 76 72 67 66 65 65 63 65 52 43 46 46 58 66 66 65 73 76
64 55 80 86 85 84 84 83 81 83 82 82 82 84 83 78 72 73 71 78 74 81 80 77 77 76 71 70 69 68 68 67 74 42 45 52 55 62 62 65 68 70 72
60 65 64 86 85 85 84 83 84 84 83 82 83 82 80 76 71 76 74 77 80 82 79 78 78 78 75 72 70 70 69 70 40 44 46 51 59 64 63 64 63 62 62
58 66 60 82 86 87 84 84 85 84 82 82 84 83 80 77 74 68 70 78 81 80 78 78 78 78 76 73 73 73 70 73 46 43 47 55 69 65 65 65 65 64 64
57 61 62 64 73 89 86 86 88 87 86 86 85 86 81 81 80 80 80 80 81 81 78 78 77 76 76 76 75 75 74 76 49 44 41 52 72 63 64 65 65 65 65
92 66 65 60 61 62 66 88 88 88 89 88 87 86 86 83 86 84 83 83 80 82 84 79 75 73 73 74 74 75 80 79 42 46 44 60 68 63 63 64 64 64 64
93 92 75 67 56 47 48 68 86 90 90 89 84 87 76 58 66 73 78 85 86 87 84 79 74 73 77 76 73 74 78 42 34 38 42 77 74 66 66 65 64 64 64
93 93 90 73 46 42 45 57 50 56 59 52 54 53 47 49 51 52 76 90 88 88 85 78 74 73 72 40 48 67 46 36 35 37 48 75 70 71 67 70 72 70 68
94 95 93 86 51 44 51 50 42 45 43 43 48 47 40 41 52 56 67 68 70 86 62 66 64 48 38 36 39 37 37 38 36 38 58 75 72 69 69 69 69 74 77
95 93 91 94 49 64 53 50 41 36 38 42 46 40 41 44 50 48 51 53 52 54 43 44 41 38 39 39 38 38 40 43 40 40 53 71 68 65 66 69 71 71 71
95 94 91 96 51 54 70 72 47 38 37 38 43 42 43 45 44 44 43 45 46 41 41 41 39 38 37 38 41 42 41 39 37 39 42 78 75 71 69 68 69 70 70
80 91 94 95 57 47 66 70 72 48 40 44 43 43 40 42 44 46 44 46 46 47 44 42 41 43 42 42 41 40 39 39 39 41 42 53 82 78 76 74 72 71 67
75 91 94 95 75 54 50 54 65 70 56 53 54 48 46 48 47 50 51 55 53 50 46 52 42 43 42 42 44 42 42 40 41 38 39 42 58 86 82 74 73 74 75
81 90 94 88 90 70 58 57 50 52 59 62 56 56 53 53 54 58 62 61 56 54 55 52 45 45 43 43 44 43 44 43 41 38 39 40 44 42 75 80 78 76 77
75 86 91 90 79 82 68 58 56 56 57 58 60 64 65 59 59 63 62 60 55 57 55 50 45 42 43 47 47 46 56 46 41 37 39 42 44 48 50 75 83 83 80
73 76 80 87 83 86 72 72 59 61 60 56 57 58 61 62 64 62 60 59 56 61 60 50 48 43 45 50 54 48 47 45 46 43 41 40 43 51 53 57 59 79 84
80 78 73 77 80 81 78 84 72 66 68 71 69 60 55 58 62 64 66 61 64 60 56 48 48 49 56 53 63 52 49 46 44 49 47 44 46 51 53 56 57 66 75
81 75 73 75 86 78 80 81 80 80 79 75 73 68 65 60 63 67 68 68 66 67 61 56 54 65 69 67 59 62 62 46 47 48 48 47 47 52 52 56 59 66 75
87 81 79 83 81 76 75 74 76 76 81 84 79 72 71 69 74 76 75 77 80 79 87 79 77 79 83 81 74 60 60 55 52 45 51 49 49 51 54 58 61 62 65
98 97 95 94 86 88 84 81 75 83 85 77 77 82 87 82 83 83 82 81 84 93 97 95 94 89 81 82 80 64 62 56 58 53 54 54 53 51 54 57 57 62 62
98 98 97 95 90 92 87 82 86 85 86 86 86 84 85 89 85 87 87 93 96 98 98 98 99 99 95 84 77 69 56 60 58 65 61 57 60 57 58 59 60 61 63
96 97 95 86 80 78 79 82 91 90 94 96 96 95 95 96 94 97 96 98 97 97 98 98 98 97 96 88 80 78 73 69 68 70 66 60 60 59 66 64 67 65 68
Wind_Speed
14 18 18 18 17 15 14 13 12 12 12 15 16 17 18 17 18 17 16 16 15 14 14 17 15 17 16 15 16 15 15 15 13 12 12 13 14 14 13 10 7 12 9
17 19 18 18 16 15 14 12 12 13 12 16 17 19 18 18 18 17 15 16 16 16 16 17 16 14 14 14 14 14 14 12 10 7 8 13 12 13 14 13 12 11 13
18 17 19 17 15 14 13 11 11 13 13 17 18 19 20 19 18 17 16 17 17 15 16 17 15 14 13 12 12 12 11 9 5 0 5 9 11 12 13 12 12 14 15
14 16 17 16 16 14 14 11 13 13 15 17 18 19 19 19 19 18 16 15 15 15 15 16 12 12 12 12 11 11 10 6 1 6 6 10 10 11 11 12 14 13 14
12 14 15 17 16 15 14 11 13 15 16 16 18 18 19 19 19 18 16 15 14 15 13 14 13 14 12 12 11 11 9 3 3 4 8 8 8 10 10 11 10 13 15
11 14 18 16 15 15 13 11 12 15 16 16 17 18 19 19 18 17 16 15 14 14 15 13 13 12 12 11 11 9 5 2 8 8 9 10 10 10 10 10 10 10 10
13 10 16 16 15 15 14 11 10 17 16 16 18 20 19 18 17 15 16 13 13 15 14 12 14 12 11 10 10 8 2 5 5 6 8 9 8 9 9 9 9 9 9
14 13 16 15 14 14 14 12 11 14 16 17 19 20 18 19 16 17 16 13 13 16 14 13 12 11 10 9 8 6 1 7 2 6 7 8 7 8 8 8 8 8 8
9 12 14 15 14 12 12 11 12 14 18 18 17 18 17 17 13 15 14 12 12 15 13 12 11 10 9 7 6 4 0 6 5 4 4 7 5 6 6 5 6 6 7
10 8 12 15 16 14 12 10 11 13 15 15 13 17 15 13 10 10 10 10 10 13 13 10 9 9 8 7 5 3 2 7 1 3 3 6 3 4 3 3 4 4 5
7 16 10 12 16 15 13 10 10 11 10 13 15 15 14 11 11 11 9 8 10 10 10 9 8 7 6 5 3 3 5 4 2 2 3 9 3 2 1 0 1 1 2
8 12 17 14 16 18 12 14 13 12 11 11 12 14 11 13 12 11 10 7 9 8 8 8 7 6 7 6 5 5 6 2 1 1 5 8 4 3 3 4 4 3 2
3 8 11 16 16 17 14 11 8 8 8 9 14 13 10 9 9 8 7 6 7 7 7 7 6 6 8 2 3 5 1 2 2 2 7 7 4 5 5 6 6 6 6
17 10 18 15 17 15 10 10 11 9 9 8 12 15 10 7 9 9 7 8 8 6 8 8 5 5 4 4 4 4 3 3 3 2 7 9 5 5 6 8 9 9 8
10 3 10 12 11 17 13 8 8 10 9 10 9 9 8 7 8 7 7 6 5 6 5 5 4 5 5 6 4 5 5 6 4 2 1 11 8 6 6 8 11 12 12
13 9 8 11 5 8 11 12 8 8 11 10 9 8 10 7 6 5 6 5 4 4 5 5 5 5 4 5 6 6 5 4 3 3 3 6 10 8 6 8 10 12 10
10 12 7 9 7 9 9 8 10 9 8 7 8 11 10 8 7 7 5 5 4 4 5 3 6 5 4 3 4 5 4 6 4 4 4 2 6 10 10 8 7 8 10
11 17 13 8 8 8 9 7 5 6 9 8 8 7 10 9 9 7 5 6 7 6 5 4 5 5 5 6 5 5 4 5 5 5 4 2 3 5 6 8 5 3 7
13 15 16 14 9 4 7 8 9 8 6 7 8 8 8 10 8 7 6 6 7 5 4 5 5 5 5 5 5 4 2 5 3 4 4 5 5 5 5 3 5 2 4
15 12 13 9 6 4 6 6 6 7 7 7 7 7 10 7 9 8 5 5 6 5 4 6 7 6 6 4 1 3 4 3 3 3 4 4 3 3 3 4 3 6 6
15 14 13 10 8 6 4 7 7 8 6 5 5 9 10 9 10 9 5 6 4 6 6 7 7 7 5 4 3 4 4 5 4 3 1 1 3 2 3 4 3 4 6
15 14 10 8 5 7 5 8 6 5 4 6 4 4 5 8 7 6 6 4 4 3 6 6 6 4 3 3 3 1 3 2 5 2 1 3 3 2 3 4 3 3 4
12 11 9 8 6 8 7 5 4 5 5 3 5 6 5 4 5 5 4 4 3 2 4 3 1 4 4 1 1 2 2 2 2 3 3 1 3 2 1 1 3 2 4
5 3 3 5 3 3 6 7 7 3 4 5 5 4 4 6 4 4 5 5 5 2 1 3 3 3 1 2 1 1 4 4 2 2 3 4 2 2 1 1 1 3 3
2 0 1 5 7 8 9 11 8 4 1 1 2 6 5 4 7 7 7 7 6 4 6 7 5 4 1 2 2 1 1 1 3 2 4 0 3 3 2 2 2 1 3
5 5 6 12 13 12 8 8 7 8 4 2 4 5 4 4 5 5 6 7 7 7 10 7 8 7 4 5 4 2 2 2 2 3 4 3 4 2 2 0 1 1 3
Wind_Direction
138 146 156 156 157 159 162 164 164 161 157 153 151 145 141 138 131 131 132 137 142 122 118 101 95 98 96 91 85 82 86 83 83 84 71 57 69 75 61 50 87 67 68
134 153 159 157 161 162 166 167 167 161 162 151 149 145 141 139 134 135 135 136 127 128 119 108 101 96 97 96 90 88 86 87 84 75 110 86 60 70 59 56 50 64 60
132 155 163 152 159 164 166 160 161 164 160 152 151 147 146 142 137 138 138 129 128 131 118 116 109 104 98 95 90 86 81 71 43 353 229 89 75 60 64 55 64 60 64
138 156 164 151 160 164 160 156 164 169 161 158 154 151 148 147 139 139 141 132 136 132 116 102 108 111 105 97 96 91 87 83 339 298 75 80 82 62 59 59 52 52 74
151 171 157 155 162 160 159 153 164 172 165 165 155 150 147 142 142 141 141 145 125 112 121 116 110 108 108 106 101 98 96 111 285 53 71 63 78 65 59 41 64 52 48
171 175 141 157 163 155 157 152 162 169 165 163 154 152 145 142 144 143 148 125 126 127 119 123 122 116 114 111 106 103 114 275 287 89 98 74 68 71 67 61 58 56 53
167 148 159 161 163 156 154 150 154 164 165 161 152 142 142 134 144 139 133 133 130 116 120 131 131 124 118 116 112 107 69 312 94 89 85 82 75 74 71 67 63 61 60
170 159 158 163 162 156 152 148 136 142 158 152 146 144 138 130 143 147 143 141 138 121 131 128 129 129 125 119 116 112 83 319 100 89 85 83 77 75 72 70 67 65 62
184 176 162 168 164 150 150 145 137 125 133 134 138 134 125 126 140 139 145 151 143 134 137 133 130 126 125 128 127 123 90 303 297 83 112 106 88 86 80 74 69 63 58
334 179 173 173 171 167 160 145 135 123 132 128 134 111 121 118 135 144 145 150 145 141 136 138 134 131 125 125 126 138 217 270 235 126 114 101 109 103 93 74 58 57 56
265 311 206 181 183 168 165 153 135 131 131 125 119 123 130 150 154 151 137 142 123 125 135 141 138 134 132 133 147 186 241 245 112 114 120 131 157 185 140 96 318 33 56
182 249 294 196 185 171 159 159 164 155 160 155 152 153 172 155 153 167 129 123 116 123 138 150 152 163 205 176 169 206 236 143 202 108 95 138 184 245 256 243 262 264 258
156 233 276 237 208 160 152 177 164 168 169 163 164 170 165 164 146 146 146 159 158 177 175 175 177 206 211 206 167 210 274 261 242 164 113 150 202 240 259 270 264 251 241
185 200 247 240 200 151 170 175 160 171 172 163 163 179 159 152 171 163 162 171 173 181 192 196 195 193 202 217 213 244 194 227 229 186 139 159 194 237 262 273 279 275 266
155 167 332 282 201 148 156 183 169 160 161 160 166 163 165 160 172 164 166 171 184 182 183 187 215 198 208 207 217 224 224 220 216 205 194 163 186 225 255 269 275 283 277
166 117 20 216 164 154 163 165 169 179 155 151 158 169 167 162 168 173 168 178 177 188 200 209 205 214 208 212 219 224 240 240 258 228 247 178 178 195 232 254 274 283 296
138 107 61 296 158 171 181 183 168 171 154 167 160 165 174 163 167 172 169 177 175 187 221 214 215 222 228 234 242 239 228 248 231 258 243 291 176 193 207 213 251 292 323
128 131 166 201 227 181 178 196 179 177 160 166 175 169 178 174 176 170 180 183 184 189 201 207 218 212 222 212 224 218 221 224 249 272 299 282 308 336 193 209 211 290 315
155 148 172 168 216 211 194 187 173 179 172 176 169 173 191 180 182 185 190 196 191 195 189 220 216 222 214 221 227 234 357 279 302 292 282 328 324 339 336 193 188 198 300
165 168 170 162 161 225 201 190 176 171 182 178 179 179 183 183 188 198 204 214 206 198 204 205 224 209 238 219 357 255 268 263 273 275 333 329 25 346 324 340 305 87 48
171 161 167 173 183 215 215 189 177 183 177 170 176 190 175 196 187 197 209 211 206 225 207 223 212 218 205 240 233 236 228 228 255 34 330 329 37 13 9 352 342 79 86
160 159 165 177 193 212 226 207 185 161 176 177 155 187 181 184 189 184 199 218 246 254 252 223 229 226 240 219 234 40 263 194 141 134 119 346 343 353 19 11 33 80 93
136 159 142 132 194 226 218 186 166 149 119 125 172 164 175 187 140 183 190 195 209 247 266 282 281 242 222 177 340 305 252 233 42 189 152 18 326 311 55 72 65 76 85
83 94 84 87 205 238 249 217 194 175 190 165 153 142 112 128 157 167 172 183 213 154 112 80 53 359 357 158 234 50 323 335 303 296 141 178 170 288 316 150 181 113 121
105 101 206 259 241 232 231 211 189 192 123 18 210 161 167 158 171 179 185 174 162 157 129 131 116 169 203 92 17 20 234 290 246 280 292 222 174 193 268 331 335 82 97
201 213 223 244 244 239 218 220 185 206 206 205 229 200 197 194 200 171 188 175 154 172 157 154 186 193 177 197 185 204 196 178 187 223 252 273 284 269 92 263 261 333 42